Location: Hermaringen
(48.5952°N, 10.2585°E)
Time: 09:51:17
(UTC+00:00)

BlueWalker 3 - Visible Passes

Search period start: 20 January 2026 00:00
Search period end: 30 January 2026 00:00
Orbit: 451 x 463 km, 53.2° (Epoch: 19 January)

Date Brightness Start Highest point End Pass type
(mag) Time Alt. Az. Time Alt. Az. Time Alt. Az.
20 Jan 3.6 17:57:50 10° S 17:59:37 19° SSE 17:59:37 19° SSE visible
21 Jan 3.5 17:22:55 10° S 17:25:22 18° SE 17:26:00 17° ESE visible
21 Jan 4.5 18:58:52 10° WSW 18:59:46 17° WSW 18:59:46 17° WSW visible
22 Jan 3.9 16:48:09 10° SSE 16:50:06 14° SE 16:52:02 10° E visible
22 Jan 2.7 18:23:30 10° SW 18:26:04 44° SW 18:26:04 44° SW visible
23 Jan 1.8 17:48:10 10° SW 17:51:41 59° SSE 17:52:18 49° ESE visible
23 Jan 5.1 19:25:50 10° W 19:26:03 11° W 19:26:03 11° W visible
24 Jan 2.2 17:12:52 10° SW 17:16:19 47° SE 17:18:27 20° E visible
24 Jan 3.8 18:50:20 10° W 18:52:12 27° WNW 18:52:12 27° WNW visible
25 Jan 2.6 16:37:36 10° SSW 16:40:56 38° SE 16:44:16 10° ENE visible
25 Jan 2.1 18:14:50 10° W 18:18:18 55° NNW 18:18:18 55° NNW visible
26 Jan 1.9 17:39:20 10° WSW 17:42:53 64° NNW 17:44:21 32° NE visible
26 Jan 4.8 19:17:24 10° WNW 19:18:05 14° WNW 19:18:05 14° WNW visible
27 Jan 1.8 17:03:51 10° WSW 17:07:25 74° NNW 17:10:21 15° ENE visible
27 Jan 3.5 18:41:53 10° WNW 18:44:05 29° NW 18:44:05 29° NW visible
28 Jan 2.5 18:06:21 10° WNW 18:09:44 39° N 18:10:04 38° N visible
29 Jan 2.5 17:30:47 10° W 17:34:12 41° N 17:36:02 22° NE visible
29 Jan 4.4 19:08:42 10° WNW 19:09:46 18° NW 19:09:46 18° NW visible
